Time,TemperatureF,DewpointF,PressureIn,WindDirection,WindDirectionDegrees,WindSpeedMPH,WindSpeedGustMPH,Humidity,HourlyPrecipIn,Conditions,Clouds,dailyrainin,SoftwareType,DateUTC
2013-11-01 00:05:00,51.0,46.0,30.09,SW,230,0.0,-999.0,83,-99.99,,,0.00,weatherlink.com 1.10,2013-11-01 07:05:00,
2013-11-01 00:20:00,50.8,46.0,30.09,SW,230,0.0,-999.0,83,-99.99,,,0.00,weatherlink.com 1.10,2013-11-01 07:20:00,
2013-11-01 00:35:00,50.2,45.0,30.09,SW,230,0.0,-999.0,82,-99.99,,,0.00,weatherlink.com 1.10,2013-11-01 07:35:00,
2013-11-01 00:50:00,49.8,45.0,30.09,SW,230,0.0,-999.0,82,-99.99,,,0.00,weatherlink.com 1.10,2013-11-01 07:50:00,
2013-11-01 01:05:00,49.5,44.0,30.08,SW,230,0.0,-999.0,82,-99.99,,,0.00,weatherlink.com 1.10,2013-11-01 08:05:00,
2013-11-01 01:20:00,49.6,45.0,30.09,SW,230,0.0,-999.0,83,-99.99,,,0.00,weatherlink.com 1.10,2013-11-01 08:20:00,
2013-11-01 01:35:00,49.5,44.0,30.09,SW,230,0.0,-999.0,82,-99.99,,,0.00,weatherlink.com 1.10,2013-11-01 08:35:00,
2013-11-01 01:50:00,49.5,45.0,30.09,SW,230,0.0,-999.0,83,-99.99,,,0.00,weatherlink.com 1.10,2013-11-01 08:50:00,
2013-11-01 02:05:00,49.5,44.0,30.09,SW,230,0.0,-999.0,82,-99.99,,,0.00,weatherlink.com 1.10,2013-11-01 09:05:00,
2013-11-01 02:20:00,49.5,45.0,30.09,SW,230,0.0,-999.0,83,-99.99,,,0.00,weatherlink.com 1.10,2013-11-01 09:20:00,
2013-11-01 02:35:00,49.5,45.0,30.09,SW,230,0.0,-999.0,83,-99.99,,,0.00,weatherlink.com 1.10,2013-11-01 09:35:00,
2013-11-01 02:50:00,49.8,45.0,30.09,SW,230,0.0,-999.0,82,-99.99,,,0.00,weatherlink.com 1.10,2013-11-01 09:50:00,
2013-11-01 03:05:00,49.6,44.0,30.09,SW,230,0.0,-999.0,82,-99.99,,,0.00,weatherlink.com 1.10,2013-11-01 10:05:00,
2013-11-01 03:20:00,49.5,44.0,30.09,SW,230,0.0,-999.0,82,-99.99,,,0.00,weatherlink.com 1.10,2013-11-01 10:20:00,
2013-11-01 03:35:00,49.5,44.0,30.09,SW,230,0.0,-999.0,82,-99.99,,,0.00,weatherlink.com 1.10,2013-11-01 10:35:00,
2013-11-01 03:50:00,49.5,44.0,30.09,SW,230,0.0,-999.0,82,-99.99,,,0.00,weatherlink.com 1.10,2013-11-01 10:50:00,
2013-11-01 04:05:00,49.4,44.0,30.09,SW,230,0.0,-999.0,82,-99.99,,,0.00,weatherlink.com 1.10,2013-11-01 11:05:00,
2013-11-01 04:20:00,49.2,44.0,30.09,SW,230,0.0,-999.0,82,-99.99,,,0.00,weatherlink.com 1.10,2013-11-01 11:20:00,
2013-11-01 04:35:00,49.2,44.0,30.09,SW,230,0.0,-999.0,82,-99.99,,,0.00,weatherlink.com 1.10,2013-11-01 11:35:00,
2013-11-01 04:50:00,49.2,44.0,30.09,SW,230,0.0,-999.0,82,-99.99,,,0.00,weatherlink.com 1.10,2013-11-01 11:50:00,
2013-11-01 05:05:00,48.9,44.0,30.09,SW,230,0.0,-999.0,83,-99.99,,,0.00,weatherlink.com 1.10,2013-11-01 12:05:00,
2013-11-01 05:20:00,48.6,44.0,30.09,SW,230,0.0,-999.0,83,-99.99,,,0.00,weatherlink.com 1.10,2013-11-01 12:20:00,
2013-11-01 05:35:00,48.6,44.0,30.09,SW,230,0.0,-999.0,84,-99.99,,,0.00,weatherlink.com 1.10,2013-11-01 12:35:00,
2013-11-01 05:50:00,48.5,44.0,30.09,SW,230,0.0,-999.0,85,-99.99,,,0.00,weatherlink.com 1.10,2013-11-01 12:50:00,
2013-11-01 06:05:00,48.3,44.0,30.09,SW,230,0.0,-999.0,85,-99.99,,,0.00,weatherlink.com 1.10,2013-11-01 13:05:00,
2013-11-01 06:20:00,48.3,44.0,30.09,SW,230,0.0,-999.0,85,-99.99,,,0.00,weatherlink.com 1.10,2013-11-01 13:20:00,
2013-11-01 06:35:00,48.5,44.0,30.09,SW,230,0.0,-999.0,85,-99.99,,,0.00,weatherlink.com 1.10,2013-11-01 13:35:00,
2013-11-01 06:50:00,48.5,44.0,30.10,SW,230,0.0,-999.0,84,-99.99,,,0.00,weatherlink.com 1.10,2013-11-01 13:50:00,
2013-11-01 07:05:00,48.3,44.0,30.10,SW,230,0.0,-999.0,85,-99.99,,,0.00,weatherlink.com 1.10,2013-11-01 14:05:00,
2013-11-01 07:20:00,48.5,44.0,30.10,SW,230,0.0,-999.0,85,-99.99,,,0.00,weatherlink.com 1.10,2013-11-01 14:20:00,
2013-11-01 07:35:00,48.5,44.0,30.11,SW,230,0.0,-999.0,85,-99.99,,,0.00,weatherlink.com 1.10,2013-11-01 14:35:00,
2013-11-01 07:50:00,48.3,44.0,30.11,SW,230,0.0,-999.0,84,-99.99,,,0.00,weatherlink.com 1.10,2013-11-01 14:50:00,
2013-11-01 08:05:00,48.5,44.0,30.11,SW,230,0.0,-999.0,85,-99.99,,,0.00,weatherlink.com 1.10,2013-11-01 15:05:00,
2013-11-01 08:20:00,48.9,45.0,30.11,SW,230,0.0,-999.0,86,-99.99,,,0.00,weatherlink.com 1.10,2013-11-01 15:20:00,
2013-11-01 08:35:00,49.8,46.0,30.12,SW,230,0.0,-999.0,86,-99.99,,,0.00,weatherlink.com 1.10,2013-11-01 15:35:00,
2013-11-01 08:50:00,50.8,47.0,30.12,SW,230,0.0,-999.0,86,-99.99,,,0.00,weatherlink.com 1.10,2013-11-01 15:50:00,
2013-11-01 09:05:00,52.5,48.0,30.12,SW,230,0.0,-999.0,84,-99.99,,,0.00,weatherlink.com 1.10,2013-11-01 16:05:00,
2013-11-01 09:20:00,55.6,49.0,30.12,SW,230,1.0,-999.0,79,-99.99,,,0.00,weatherlink.com 1.10,2013-11-01 16:20:00,
2013-11-01 09:35:00,59.5,46.0,30.12,NNW,340,0.0,-999.0,62,-99.99,,,0.00,weatherlink.com 1.10,2013-11-01 16:35:00,
2013-11-01 09:51:00,62.7,46.0,30.12,NNE,26,0.0,-999.0,54,-99.99,,,0.00,weatherlink.com 1.10,2013-11-01 16:51:00,
2013-11-01 10:06:00,65.0,45.0,30.12,East,82,0.0,-999.0,49,-99.99,,,0.00,weatherlink.com 1.10,2013-11-01 17:06:00,
2013-11-01 10:21:00,67.4,46.0,30.12,SSW,213,0.0,-999.0,47,-99.99,,,0.00,weatherlink.com 1.10,2013-11-01 17:21:00,
2013-11-01 10:36:00,68.8,45.0,30.12,SSW,213,1.0,-999.0,43,-99.99,,,0.00,weatherlink.com 1.10,2013-11-01 17:36:00,
2013-11-01 10:51:00,69.4,45.0,30.11,ESE,103,0.0,-999.0,41,-99.99,,,0.00,weatherlink.com 1.10,2013-11-01 17:51:00,
2013-11-01 11:06:00,70.4,44.0,30.11,East,83,0.0,-999.0,39,-99.99,,,0.00,weatherlink.com 1.10,2013-11-01 18:06:00,
2013-11-01 11:21:00,72.0,45.0,30.11,East,97,0.0,-999.0,38,-99.99,,,0.00,weatherlink.com 1.10,2013-11-01 18:21:00,
2013-11-01 11:36:00,72.5,43.0,30.11,ENE,61,1.0,-999.0,35,-99.99,,,0.00,weatherlink.com 1.10,2013-11-01 18:36:00,
2013-11-01 11:51:00,72.8,41.0,30.10,ESE,107,1.0,-999.0,32,-99.99,,,0.00,weatherlink.com 1.10,2013-11-01 18:51:00,
2013-11-01 12:06:00,73.7,42.0,30.09,SE,130,1.0,-999.0,32,-99.99,,,0.00,weatherlink.com 1.10,2013-11-01 19:06:00,
2013-11-01 12:21:00,73.9,41.0,30.09,ENE,67,1.0,-999.0,31,-99.99,,,0.00,weatherlink.com 1.10,2013-11-01 19:21:00,
2013-11-01 12:36:00,75.4,42.0,30.09,ENE,76,0.0,-999.0,30,-99.99,,,0.00,weatherlink.com 1.10,2013-11-01 19:36:00,
2013-11-01 12:51:00,76.7,42.0,30.08,SE,132,1.0,-999.0,29,-99.99,,,0.00,weatherlink.com 1.10,2013-11-01 19:51:00,
2013-11-01 13:06:00,76.8,44.0,30.07,SSE,155,2.0,-999.0,31,-99.99,,,0.00,weatherlink.com 1.10,2013-11-01 20:06:00,
2013-11-01 13:21:00,77.6,44.0,30.06,ENE,74,2.0,-999.0,30,-99.99,,,0.00,weatherlink.com 1.10,2013-11-01 20:21:00,
2013-11-01 13:36:00,77.0,43.0,30.05,NE,36,0.0,-999.0,30,-99.99,,,0.00,weatherlink.com 1.10,2013-11-01 20:36:00,
2013-11-01 13:51:00,78.1,44.0,30.04,ENE,66,0.0,-999.0,30,-99.99,,,0.00,weatherlink.com 1.10,2013-11-01 20:51:00,
2013-11-01 14:06:00,78.1,41.0,30.04,ESE,105,0.0,-999.0,27,-99.99,,,0.00,weatherlink.com 1.10,2013-11-01 21:06:00,
2013-11-01 14:21:00,78.6,43.0,30.04,East,88,0.0,-999.0,28,-99.99,,,0.00,weatherlink.com 1.10,2013-11-01 21:21:00,
2013-11-01 14:36:00,78.3,43.0,30.04,East,98,0.0,-999.0,28,-99.99,,,0.00,weatherlink.com 1.10,2013-11-01 21:36:00,
2013-11-01 14:51:00,77.9,42.0,30.03,ENE,68,1.0,-999.0,28,-99.99,,,0.00,weatherlink.com 1.10,2013-11-01 21:51:00,
2013-11-01 15:06:00,78.3,42.0,30.03,SSE,156,1.0,-999.0,27,-99.99,,,0.00,weatherlink.com 1.10,2013-11-01 22:06:00,
2013-11-01 15:21:00,77.9,41.0,30.02,SE,138,0.0,-999.0,27,-99.99,,,0.00,weatherlink.com 1.10,2013-11-01 22:21:00,
2013-11-01 15:37:00,77.6,42.0,30.02,NE,37,2.0,-999.0,28,-99.99,,,0.00,weatherlink.com 1.10,2013-11-01 22:37:00,
2013-11-01 15:52:00,77.4,42.0,30.02,ESE,123,1.0,-999.0,28,-99.99,,,0.00,weatherlink.com 1.10,2013-11-01 22:52:00,
2013-11-01 16:07:00,77.4,41.0,30.02,ENE,76,0.0,-999.0,27,-99.99,,,0.00,weatherlink.com 1.10,2013-11-01 23:07:00,
2013-11-01 16:22:00,77.2,42.0,30.01,SE,134,1.0,-999.0,28,-99.99,,,0.00,weatherlink.com 1.10,2013-11-01 23:22:00,
2013-11-01 16:37:00,76.3,42.0,30.01,ENE,75,0.0,-999.0,29,-99.99,,,0.00,weatherlink.com 1.10,2013-11-01 23:37:00,
2013-11-01 16:52:00,75.8,42.0,30.01,East,85,0.0,-999.0,30,-99.99,,,0.00,weatherlink.com 1.10,2013-11-01 23:52:00,
2013-11-01 17:07:00,75.1,42.0,30.01,ENE,72,0.0,-999.0,30,-99.99,,,0.00,weatherlink.com 1.10,2013-11-02 00:07:00,
2013-11-01 17:22:00,73.7,42.0,30.01,SE,128,2.0,-999.0,32,-99.99,,,0.00,weatherlink.com 1.10,2013-11-02 00:22:00,
2013-11-01 17:37:00,72.5,42.0,30.01,ENE,78,0.0,-999.0,33,-99.99,,,0.00,weatherlink.com 1.10,2013-11-02 00:37:00,
2013-11-01 17:52:00,71.3,41.0,30.01,East,101,1.0,-999.0,34,-99.99,,,0.00,weatherlink.com 1.10,2013-11-02 00:52:00,
2013-11-01 18:07:00,70.3,41.0,30.01,East,79,1.0,-999.0,35,-99.99,,,0.00,weatherlink.com 1.10,2013-11-02 01:07:00,
2013-11-01 18:22:00,69.1,42.0,30.01,ENE,71,0.0,-999.0,37,-99.99,,,0.00,weatherlink.com 1.10,2013-11-02 01:22:00,
2013-11-01 18:37:00,68.1,42.0,30.01,ENE,65,0.0,-999.0,39,-99.99,,,0.00,weatherlink.com 1.10,2013-11-02 01:37:00,
2013-11-01 18:52:00,66.9,44.0,30.01,West,267,0.0,-999.0,44,-99.99,,,0.00,weatherlink.com 1.10,2013-11-02 01:52:00,
2013-11-01 19:07:00,65.6,48.0,30.01,West,267,0.0,-999.0,54,-99.99,,,0.00,weatherlink.com 1.10,2013-11-02 02:07:00,
2013-11-01 19:22:00,64.0,49.0,30.01,West,267,0.0,-999.0,59,-99.99,,,0.00,weatherlink.com 1.10,2013-11-02 02:22:00,
2013-11-01 19:37:00,62.1,48.0,30.02,West,267,0.0,-999.0,60,-99.99,,,0.00,weatherlink.com 1.10,2013-11-02 02:37:00,
2013-11-01 19:52:00,60.7,46.0,30.01,West,267,0.0,-999.0,59,-99.99,,,0.00,weatherlink.com 1.10,2013-11-02 02:52:00,
2013-11-01 20:07:00,59.6,45.0,30.01,West,267,0.0,-999.0,60,-99.99,,,0.00,weatherlink.com 1.10,2013-11-02 03:07:00,
2013-11-01 20:21:00,58.7,45.0,30.00,West,267,0.0,-999.0,60,-99.99,,,0.00,weatherlink.com 1.10,2013-11-02 03:21:00,
2013-11-01 20:37:00,58.1,45.0,30.00,West,267,0.0,-999.0,61,-99.99,,,0.00,weatherlink.com 1.10,2013-11-02 03:37:00,
2013-11-01 20:52:00,57.6,44.0,30.00,West,267,0.0,-999.0,62,-99.99,,,0.00,weatherlink.com 1.10,2013-11-02 03:52:00,
2013-11-01 21:07:00,57.2,44.0,30.00,West,267,0.0,-999.0,62,-99.99,,,0.00,weatherlink.com 1.10,2013-11-02 04:07:00,
2013-11-01 21:22:00,56.6,44.0,30.00,West,267,0.0,-999.0,63,-99.99,,,0.00,weatherlink.com 1.10,2013-11-02 04:22:00,
2013-11-01 21:37:00,55.9,44.0,30.00,West,267,0.0,-999.0,64,-99.99,,,0.00,weatherlink.com 1.10,2013-11-02 04:37:00,
2013-11-01 21:52:00,55.1,44.0,30.01,West,267,0.0,-999.0,66,-99.99,,,0.00,weatherlink.com 1.10,2013-11-02 04:52:00,
2013-11-01 22:07:00,54.8,44.0,30.01,West,267,0.0,-999.0,68,-99.99,,,0.00,weatherlink.com 1.10,2013-11-02 05:07:00,
2013-11-01 22:22:00,54.5,44.0,30.01,West,267,0.0,-999.0,68,-99.99,,,0.00,weatherlink.com 1.10,2013-11-02 05:22:00,
2013-11-01 22:37:00,54.4,44.0,30.01,West,267,0.0,-999.0,68,-99.99,,,0.00,weatherlink.com 1.10,2013-11-02 05:37:00,
2013-11-01 22:52:00,54.2,44.0,30.01,West,267,0.0,-999.0,68,-99.99,,,0.00,weatherlink.com 1.10,2013-11-02 05:52:00,
2013-11-01 23:07:00,53.9,44.0,30.01,West,267,0.0,-999.0,69,-99.99,,,0.00,weatherlink.com 1.10,2013-11-02 06:07:00,
2013-11-01 23:22:00,54.1,44.0,30.01,West,267,0.0,-999.0,69,-99.99,,,0.00,weatherlink.com 1.10,2013-11-02 06:22:00,
2013-11-01 23:37:00,54.1,44.0,30.01,West,267,0.0,-999.0,69,-99.99,,,0.00,weatherlink.com 1.10,2013-11-02 06:37:00,
2013-11-01 23:52:00,53.6,44.0,30.01,West,267,0.0,-999.0,70,-99.99,,,0.00,weatherlink.com 1.10,2013-11-02 06:52:00,